• In Belarus
  • List of Countries
  • For 7 days
  • Water Temperature
  • Weather Map
  • Weather Widgets
  • user-avatar
    Login

    Hourly Weather Malanville

    Today, 15 December, Sunday

    Time Temperature Precipitation Wind Pressure Humidity
    00:00 +21°C° 0 mm 3 mps 745 mmHg 11%
    01:00 +21°C° 0 mm 3 mps 745 mmHg 11%
    02:00 +20°C° 0 mm 2 mps 745 mmHg 12%
    03:00 +20°C° 0 mm 2 mps 744 mmHg 12%
    04:00 +19°C° 0 mm 2 mps 745 mmHg 12%
    05:00 +19°C° 0 mm 2 mps 745 mmHg 13%
    06:00 +18°C° 0 mm 3 mps 745 mmHg 13%
    07:00 +21°C° 0 mm 3 mps 746 mmHg 12%
    08:00 +25°C° 0 mm 4 mps 746 mmHg 11%
    09:00 +27°C° 0 mm 5 mps 746 mmHg 10%
    10:00 +30°C° 0 mm 5 mps 745 mmHg 9%
    11:00 +33°C° 0 mm 5 mps 745 mmHg 8%
    12:00 +35°C° 0 mm 4 mps 744 mmHg 7%
    13:00 +36°C° 0 mm 4 mps 743 mmHg 7%
    14:00 +36°C° 0 mm 4 mps 743 mmHg 7%
    15:00 +37°C° 0 mm 4 mps 742 mmHg 7%
    16:00 +34°C° 0 mm 4 mps 742 mmHg 8%
    17:00 +31°C° 0 mm 3 mps 743 mmHg 9%
    18:00 +28°C° 0 mm 3 mps 743 mmHg 10%
    19:00 +28°C° 0 mm 3 mps 743 mmHg 10%
    20:00 +27°C° 0 mm 3 mps 743 mmHg 10%
    21:00 +26°C° 0 mm 3 mps 744 mmHg 10%
    22:00 +25°C° 0 mm 3 mps 744 mmHg 11%
    23:00 +24°C° 0 mm 3 mps 744 mmHg 11%

    Tomorrow, 16 December, Monday

    Time Temperature Precipitation Wind Pressure Humidity
    00:00 +22°C° 0 mm 3 mps 744 mmHg 11%
    01:00 +22°C° 0 mm 3 mps 743 mmHg 11%
    02:00 +21°C° 0 mm 3 mps 743 mmHg 11%
    03:00 +20°C° 0 mm 3 mps 743 mmHg 12%
    04:00 +20°C° 0 mm 3 mps 743 mmHg 12%
    05:00 +19°C° 0 mm 3 mps 743 mmHg 12%
    06:00 +19°C° 0 mm 3 mps 744 mmHg 12%
    07:00 +22°C° 0 mm 4 mps 744 mmHg 11%
    08:00 +25°C° 0 mm 4 mps 744 mmHg 10%
    09:00 +28°C° 0 mm 5 mps 744 mmHg 9%
    10:00 +32°C° 0 mm 5 mps 744 mmHg 9%
    11:00 +34°C° 0 mm 5 mps 743 mmHg 8%
    12:00 +36°C° 0 mm 5 mps 743 mmHg 7%
    13:00 +37°C° 0 mm 5 mps 742 mmHg 8%
    14:00 +38°C° 0 mm 4 mps 741 mmHg 8%
    15:00 +38°C° 0 mm 4 mps 740 mmHg 8%
    16:00 +36°C° 0 mm 4 mps 740 mmHg 9%
    17:00 +33°C° 0 mm 3 mps 741 mmHg 11%
    18:00 +29°C° 0 mm 3 mps 741 mmHg 12%
    19:00 +28°C° 0 mm 3 mps 741 mmHg 12%
    20:00 +27°C° 0 mm 3 mps 742 mmHg 13%
    21:00 +26°C° 0 mm 3 mps 742 mmHg 13%
    22:00 +26°C° 0 mm 3 mps 742 mmHg 13%
    23:00 +25°C° 0 mm 3 mps 742 mmHg 13%

    Day after tomorrow, 17 December, Tuesday

    Time Temperature Precipitation Wind Pressure Humidity
    00:00 +24°C° 0 mm 3 mps 742 mmHg 13%
    01:00 +24°C° 0 mm 3 mps 742 mmHg 13%
    02:00 +22°C° 0 mm 3 mps 742 mmHg 13%
    03:00 +22°C° 0 mm 3 mps 741 mmHg 13%
    04:00 +21°C° 0 mm 3 mps 742 mmHg 14%
    05:00 +21°C° 0 mm 3 mps 742 mmHg 14%
    06:00 +20°C° 0 mm 3 mps 743 mmHg 14%
    07:00 +24°C° 0 mm 3 mps 743 mmHg 13%
    08:00 +27°C° 0 mm 4 mps 743 mmHg 12%
    09:00 +29°C° 0 mm 5 mps 744 mmHg 11%
    10:00 +33°C° 0 mm 4 mps 743 mmHg 10%
    11:00 +35°C° 0 mm 4 mps 743 mmHg 9%
    12:00 +37°C° 0 mm 4 mps 742 mmHg 9%
    13:00 +38°C° 0 mm 3 mps 742 mmHg 9%
    14:00 +38°C° 0 mm 3 mps 741 mmHg 9%
    15:00 +39°C° 0 mm 2 mps 740 mmHg 9%
    16:00 +36°C° 0 mm 2 mps 740 mmHg 12%
    17:00 +32°C° 0 mm 2 mps 741 mmHg 14%
    18:00 +29°C° 0 mm 1 mps 741 mmHg 17%
    19:00 +29°C° 0 mm 2 mps 741 mmHg 17%
    20:00 +29°C° 0 mm 2 mps 742 mmHg 16%
    21:00 +29°C° 0 mm 3 mps 743 mmHg 16%
    22:00 +28°C° 0 mm 3 mps 742 mmHg 16%
    23:00 +27°C° 0 mm 3 mps 742 mmHg 17%

    18 December, Wednesday

    Time Temperature Precipitation Wind Pressure Humidity
    00:00 +26°C° 0 mm 2 mps 742 mmHg 17%
    01:00 +25°C° 0 mm 3 mps 742 mmHg 18%
    02:00 +24°C° 0 mm 3 mps 742 mmHg 19%
    03:00 +24°C° 0 mm 3 mps 742 mmHg 19%
    04:00 +22°C° 0 mm 3 mps 742 mmHg 21%
    05:00 +22°C° 0 mm 3 mps 743 mmHg 22%
    06:00 +21°C° 0 mm 3 mps 743 mmHg 23%
    07:00 +25°C° 0 mm 4 mps 744 mmHg 21%
    08:00 +28°C° 0 mm 4 mps 744 mmHg 18%
    09:00 +32°C° 0 mm 5 mps 745 mmHg 16%
    10:00 +34°C° 0 mm 5 mps 744 mmHg 14%
    11:00 +36°C° 0 mm 5 mps 744 mmHg 13%
    12:00 +39°C° 0 mm 5 mps 743 mmHg 12%
    13:00 +40°C° 0 mm 4 mps 743 mmHg 12%
    14:00 +40°C° 0 mm 4 mps 742 mmHg 12%
    15:00 +41°C° 0 mm 4 mps 741 mmHg 12%
    16:00 +37°C° 0 mm 3 mps 742 mmHg 14%
    17:00 +35°C° 0 mm 3 mps 742 mmHg 16%
    18:00 +31°C° 0 mm 3 mps 742 mmHg 18%
    19:00 +30°C° 0 mm 3 mps 743 mmHg 19%
    20:00 +29°C° 0 mm 3 mps 743 mmHg 19%
    21:00 +28°C° 0 mm 3 mps 744 mmHg 20%
    22:00 +27°C° 0 mm 3 mps 744 mmHg 20%
    23:00 +27°C° 0 mm 3 mps 744 mmHg 21%

    19 December, Thursday

    Time Temperature Precipitation Wind Pressure Humidity
    00:00 +26°C° 0 mm 3 mps 743 mmHg 21%
    01:00 +25°C° 0 mm 3 mps 743 mmHg 22%
    02:00 +25°C° 0 mm 3 mps 743 mmHg 22%
    03:00 +24°C° 0 mm 3 mps 743 mmHg 23%
    04:00 +22°C° 0 mm 3 mps 743 mmHg 23%
    05:00 +21°C° 0 mm 3 mps 744 mmHg 24%
    06:00 +21°C° 0 mm 3 mps 744 mmHg 24%
    07:00 +23°C° 0 mm 4 mps 744 mmHg 21%
    08:00 +27°C° 0 mm 5 mps 745 mmHg 17%
    09:00 +30°C° 0 mm 6 mps 745 mmHg 14%
    10:00 +33°C° 0 mm 6 mps 745 mmHg 13%
    11:00 +35°C° 0 mm 5 mps 744 mmHg 12%
    12:00 +37°C° 0 mm 5 mps 743 mmHg 11%
    13:00 +39°C° 0 mm 5 mps 743 mmHg 10%
    14:00 +39°C° 0 mm 5 mps 742 mmHg 10%
    15:00 +40°C° 0 mm 5 mps 741 mmHg 9%
    16:00 +36°C° 0 mm 4 mps 742 mmHg 11%
    17:00 +33°C° 0 mm 4 mps 742 mmHg 12%
    18:00 +30°C° 0 mm 4 mps 742 mmHg 14%
    19:00 +29°C° 0 mm 4 mps 743 mmHg 14%
    20:00 +28°C° 0 mm 4 mps 743 mmHg 15%
    21:00 +26°C° 0 mm 4 mps 744 mmHg 15%
    22:00 +26°C° 0 mm 3 mps 744 mmHg 15%
    23:00 +25°C° 0 mm 3 mps 744 mmHg 16%

    20 December, Friday

    Time Temperature Precipitation Wind Pressure Humidity
    00:00 +24°C° 0 mm 3 mps 744 mmHg 16%
    01:00 +22°C° 0 mm 3 mps 743 mmHg 16%
    02:00 +21°C° 0 mm 3 mps 743 mmHg 17%
    03:00 +20°C° 0 mm 3 mps 743 mmHg 18%
    04:00 +20°C° 0 mm 3 mps 744 mmHg 18%
    05:00 +19°C° 0 mm 3 mps 744 mmHg 18%
    06:00 +19°C° 0 mm 3 mps 744 mmHg 19%
    07:00 +21°C° 0 mm 4 mps 745 mmHg 17%
    08:00 +25°C° 0 mm 5 mps 745 mmHg 15%
    09:00 +28°C° 0 mm 6 mps 746 mmHg 13%
    10:00 +30°C° 0 mm 6 mps 745 mmHg 12%
    11:00 +34°C° 0 mm 6 mps 744 mmHg 11%
    12:00 +36°C° 0 mm 6 mps 744 mmHg 9%
    13:00 +37°C° 0 mm 5 mps 743 mmHg 9%
    14:00 +39°C° 0 mm 5 mps 742 mmHg 8%
    15:00 +38°C° 0 mm 4 mps 742 mmHg 8%
    16:00 +36°C° 0 mm 4 mps 742 mmHg 10%
    17:00 +33°C° 0 mm 4 mps 742 mmHg 11%
    18:00 +29°C° 0 mm 3 mps 742 mmHg 13%
    19:00 +28°C° 0 mm 3 mps 743 mmHg 14%
    20:00 +27°C° 0 mm 3 mps 743 mmHg 14%
    21:00 +26°C° 0 mm 3 mps 744 mmHg 15%
    22:00 +25°C° 0 mm 3 mps 744 mmHg 16%
    23:00 +24°C° 0 mm 3 mps 743 mmHg 16%
    Show more